STARLINK-33739, 63572

Orbit data source: Space-Track

STARLINK-33739, 63572 is a payload satellite owned by SpaceX/Seattle (US) in LEO that was launched on Mon, 14 Apr 2025 UTC via an FALCON 9 launch vehicle from the Air Force Eastern Test Range (AFETR). Payload-class satellites include a variety of spacecraft equipped with specific instruments for various scientific and technological missions. These include communications satellites like Starlink; space stations such as the ISS; scientific satellites like the Hubble; Earth observation satellites from companies like Planet Labs, Umbra, and HawkEye 360; GPS; miniature CubeSats for education and research; and military/defense satellites.

Loading next visibility...
Identifier
63572, 2025-076D
Orbit
LEO
Country
Flag of USUS
Related business
Manufacturer
SpaceX/Seattle
Mission
Operational Commercial Communications
Bus & Motor
STARLINK V2MO, Unknown motor
Mass
575 kg wet, ~530 kg dry
Launch date (UTC)
2025-04-14 (1 year ago)
Launch vehicle
FALCON 9
Launch site
Air Force Eastern Test Range (AFETR)
Object type
Payload
Rocket body
Debris
Shape & HBR
Box + 2 Pan, 17.7 m
Radar Cross Section
36.964 m², Large (>1 m²)

Expand to show TLE details & history
Last TLE update: 18 hours ago

TLE from 18 hours ago
0 STARLINK-33739
1 63572U 25076D   26144.64989751  .00016018  00000-0  59010-3 0  9993
2 63572  42.9998 253.0531 0001618 277.4072  82.6596 15.27592424 63444
Epoch: 2026-05-24T15:35Z
TLE epoch observation values (Epoch: 2026-05-24T15:35:51.144Z)
Latitude
-0.00002°
Longitude
136.84098°
Altitude
482.646 km
Speed
7.626 km/s
True Right ascension
16h 52m 12s
True Declination
0° 00' 00"
Sunlit
Object was in full shadow at epoch
Visualization orbit readout
Latitude
Unknown
Longitude
Unknown
Altitude
Unknown
Speed
Unknown
Apparent Right ascension
Unknown
Apparent Declination
Unknown
Sunlit
N/A
Visualization observer readout
Local Sidereal Time
18:36:09
Azimuth
Unknown
Elevation
Unknown
Doppler factor
Unknown
Orbital elements
Apogee altitude
486.068 km
Perigee altitude
483.847 km
Semi-major axis
6,863.094 km
Eccentricity
0.00016
Inclination
42.9998°
RAAN
253.0531°
Arg. of periapsis
277.4072°
True anomaly
82.67799°
Mean anomaly
82.6596°
Eccentric anomaly
82.66879°
Mean motion
3.81736 °/min
Orbital period
94.31 mins
BSTAR
0.0005901
Loading maneuver chart data...
Computing Atmospheric mass density...
Loading historical data...
Loading historical data...
Loading historical data...
Loading historical data...
Loading historical data...
Loading historical data...
Loading historical data...

Documentation

Showing up to 5 results
|